Weather History for Hawarden, United Kingdom

Change the Weather History Date:

Friday, June 6, 2014

  Actual Average (EGGP) Record (EGGP)
Temperature  
Mean Temperature 54 °F -  
Max Temperature 71 °F 64 °F 73 °F (2004)
Min Temperature 37 °F 52 °F 42 °F (2014)
Degree Days  
Heating Degree Days 11    
Growing Degree Days 4 (Base 50)    
Moisture  
Dew Point 46 °F    
Average Humidity 58    
Maximum Humidity 89    
Minimum Humidity 37    
Precipitation  
Precipitation 0.00 in - - ()
Sea Level Pressure  
Sea Level Pressure 29.90 in    
Wind  
Wind Speed 7 mph ()    
Max Wind Speed 16 mph    
Max Gust Speed -    
Visibility 15.2 miles    
Events Rain    
Averages and records for this station are not official NWS values.
T = Trace of Precipitation, MM = Missing Value Source: Averaged Metar Reports

Daily Weather History Graph

Daily Weather History Graph

Search for Another Location

Airport:

Trip Planner

Search our weather history database for the weather conditions in past years. The results will help you decide how hot, cold, wet, or windy it might be!

Date:

Astronomy

Jun. 06, 2014 Rise Set
Actual Time 4:47 AM BST 9:33 PM BST
Civil Twilight 3:57 AM BST 10:24 PM BST
Nautical Twilight 2:35 AM BST 11:47 PM BST
Astronomical Twilight Sun does not rise Sun does not rise
Moon 1:43 PM BST (6/6) 1:32 AM BST (6/6)
Length of Visible Light 18h 26m
Length of Day
16h 46m
First Quarter, 56% of the Moon is Illuminated
Jun 6
First Quarter
Jun 13
Full
Jun 19
Last Quarter
Jun 27
New
Jul 5
First Quarter

Hourly Weather History & Observations

Time (BST) Temp. Windchill Dew Point Humidity Pressure Visibility Wind Dir Wind Speed Gust Speed Precip Events Conditions
12:00 AM 47 °F - 38 °F 60% 29.92 in 28 mi SSW 1.2 mph - -  
1:00 AM 46 °F - 36 °F 59% 29.92 in 25 mi SSW 6.9 mph - -  
2:00 AM 42 °F - 36 °F 70% 29.93 in 31 mi SSE 3.5 mph - -  
3:00 AM 39 °F - 36 °F 85% 29.93 in 25 mi ESE 1.2 mph - -  
4:00 AM 39 °F - 36 °F 87% 29.93 in 28 mi SSW 4.6 mph - -  
5:00 AM 40 °F - 37 °F 83% 29.93 in 19 mi South 3.5 mph - -  
6:00 AM 41 °F - 39 °F 89% 29.94 in 15 mi SSE 5.8 mph - -   Partly Cloudy
6:20 AM 44.6 °F 43.1 °F 41.0 °F 87% 29.92 in - SSE 3.5 mph - N/A   Clear
6:50 AM 46.4 °F 45.2 °F 42.8 °F 87% 29.92 in - SSE 3.5 mph - N/A   Clear
7:00 AM 45 °F - 41 °F 79% 29.93 in 19 mi SE 3.5 mph - -  
7:20 AM 46.4 °F 45.2 °F 42.8 °F 87% 29.95 in - South 3.5 mph - N/A   Clear
7:50 AM 50.0 °F - 44.6 °F 82% 29.95 in - Variable 3.5 mph - N/A   Clear
8:00 AM 49 °F - 43 °F 73% 29.94 in 25 mi SSE 4.6 mph - -   Overcast
8:20 AM 51.8 °F - 42.8 °F 71% 29.95 in - South 4.6 mph - N/A   Clear
8:50 AM 59.0 °F - 48.2 °F 67% 29.95 in - SSE 5.8 mph - N/A   Clear
9:00 AM 55 °F - 43 °F 53% 29.94 in 16 mi SSE 5.8 mph - -   Partly Cloudy
9:20 AM 57.2 °F - 46.4 °F 67% 29.92 in - SSE 4.6 mph - N/A   Clear
9:50 AM 59.0 °F - 46.4 °F 63% 29.92 in - SSE 9.2 mph - N/A   Clear
10:00 AM 59 °F - 47 °F 56% 29.93 in 2 mi SE 9.2 mph - -  
10:20 AM 62.6 °F - 48.2 °F 59% 29.92 in - SSE 9.2 mph - N/A   Clear
10:50 AM 62.6 °F - 44.6 °F 52% 29.92 in - SSE 10.4 mph - N/A   Clear
11:00 AM 62 °F - 44 °F 41% 29.92 in 17 mi SE 10.4 mph - -   Mostly Cloudy
11:20 AM 64.4 °F - 46.4 °F 52% 29.92 in - SSE 11.5 mph - N/A   Clear
11:50 AM 64.4 °F - 46.4 °F 52% 29.92 in - SSE 12.7 mph - N/A   Clear
12:00 PM 64 °F - 46 °F 42% 29.91 in 25 mi SSE 12.7 mph - -   Partly Cloudy
12:20 PM 64.4 °F - 48.2 °F 56% 29.89 in 6.2 mi SSE 12.7 mph - N/A   Partly Cloudy
12:50 PM 66.2 °F - 48.2 °F 52% 29.89 in - SSE 12.7 mph - N/A   Clear
1:00 PM 66 °F - 47 °F 39% 29.90 in 19 mi SE 13.8 mph - -   Partly Cloudy
1:20 PM 66.2 °F - 48.2 °F 52% 29.89 in - SSE 13.8 mph - N/A   Clear
1:50 PM 68.0 °F - 48.2 °F 49% 29.89 in - SSE 13.8 mph - N/A   Clear
2:00 PM 67 °F - 48 °F 39% 29.89 in 17 mi SE 13.8 mph - -   Scattered Clouds
2:20 PM 68.0 °F - 48.2 °F 49% 29.89 in - SE 12.7 mph - N/A   Clear
2:50 PM 68.0 °F - 48.2 °F 49% 29.89 in - SSE 13.8 mph - N/A   Clear
3:00 PM 67 °F - 50 °F 43% 29.88 in 19 mi SSE 13.8 mph - -   Scattered Clouds
3:20 PM 69.8 °F - 50.0 °F 49% 29.86 in - ESE 12.7 mph - N/A   Clear
4:00 PM 70 °F - 50 °F 38% 29.86 in 16 mi ESE 13.8 mph - -   Partly Cloudy
4:20 PM 71.6 °F - 50.0 °F 46% 29.86 in - ESE 15.0 mph - N/A   Clear
4:50 PM 71.6 °F - 51.8 °F 50% 29.86 in - SE 13.8 mph - N/A   Clear
5:00 PM 71 °F - 50 °F 37% 29.85 in 28 mi SE 13.8 mph - -   Scattered Clouds
5:20 PM 69.8 °F - 51.8 °F 53% 29.83 in - ESE 16.1 mph - N/A   Clear
5:50 PM 69.8 °F - 51.8 °F 53% 29.83 in - ESE 13.8 mph - N/A   Clear
6:00 PM 69 °F - 50 °F 40% 29.84 in 22 mi ESE 16.1 mph - -  
6:20 PM 69.8 °F - 51.8 °F 53% 29.83 in - ESE 13.8 mph - N/A   Clear
7:00 PM 69 °F - 51 °F 41% 29.84 in 22 mi ESE 13.8 mph - -   Partly Cloudy
8:00 PM 67 °F - 52 °F 47% 29.85 in 25 mi ESE 9.2 mph - -   Mostly Cloudy
9:00 PM 65 °F - 52 °F 54% 29.85 in 22 mi ESE 10.4 mph - - Rain Rain
10:00 PM 64 °F - 52 °F 55% 29.86 in 17 mi ESE 11.5 mph - -  
11:00 PM 63 °F - 51 °F 57% 29.87 in 28 mi SE 9.2 mph - -   Mostly Cloudy